Location: Newark
(26.8229°N, 81.7649°W)
Time: 11:14:13
(UTC+00:00)

Hubble Space Telescope - Pass Details

Date: 27 January 2020
Orbit: 536 x 540 km, 28.5° (Epoch: 20 February)

Event Time Altitude Azimuth Distance (km) Brightness Sun altitude
Exits shadow 10:48:16 - 206° (SSW) 2,114 3.7 -19.4°
Reaches altitude 10° 10:49:28 10° 195° (SSW) 1,772 3.4 -19.1°
Maximum altitude 10:52:11 17° 153° (SSE) 1,377 3.3 -18.5°
Drops below altitude 10° 10:54:55 10° 111° (ESE) 1,776 4.7 -17.9°
Sets 10:57:46 0° 91° (E) 2,669 5.9 -17.3°
